VLG3CA SABE-SACO

Flight info

Callsign VLG3CA
Flight time N/A
Altitude 32000
Route ATOVO4B ATOVO UW5 ASISA ASISA1Q
Aircraft A320/M-SDE3FGHIRWY/LB1

Departure

Time 2026-05-03 23:17
Airport Aeroparque Jorge Newbery (SABE)

Arrival

Time N/A
Airport Ingeniero Aeronáutico Ambrosio L.V. Taravella International Airport (SACO)
Time Latitude Longitude Altitude Speed Heading
2026-05-03 22:40 -34.55680 -58.41489 23 ft 0 kts 12°
2026-05-03 23:08 -34.55685 -58.41491 23 ft 4 kts 12°
2026-05-03 23:08 -34.55707 -58.41496 25 ft 4 kts 355°
2026-05-03 23:08 -34.55729 -58.41485 25 ft 4 kts 307°
2026-05-03 23:09 -34.55736 -58.41474 23 ft 0 kts 298°
2026-05-03 23:12 -34.55733 -58.41479 25 ft 2 kts 298°
2026-05-03 23:12 -34.55726 -58.41498 24 ft 5 kts 295°
2026-05-03 23:12 -34.55739 -58.41561 24 ft 12 kts 224°
2026-05-03 23:12 -34.55811 -58.41561 25 ft 14 kts 122°
2026-05-03 23:13 -34.55865 -58.41431 24 ft 20 kts 117°
2026-05-03 23:13 -34.55943 -58.41262 25 ft 25 kts 127°
2026-05-03 23:13 -34.56051 -58.41084 23 ft 15 kts 128°
2026-05-03 23:13 -34.56110 -58.40993 23 ft 15 kts 127°
2026-05-03 23:14 -34.56165 -58.40865 23 ft 19 kts 109°
2026-05-03 23:14 -34.56226 -58.40721 23 ft 16 kts 123°
2026-05-03 23:14 -34.56260 -58.40656 24 ft 9 kts 122°
2026-05-03 23:14 -34.56295 -58.40596 23 ft 9 kts 128°
2026-05-03 23:15 -34.56336 -58.40545 23 ft 9 kts 135°
2026-05-03 23:15 -34.56379 -58.40496 23 ft 3 kts 136°
2026-05-03 23:15 -34.56406 -58.40465 23 ft 7 kts 136°
2026-05-03 23:15 -34.56455 -58.40410 23 ft 15 kts 138°
2026-05-03 23:16 -34.56554 -58.40410 23 ft 15 kts 240°
2026-05-03 23:16 -34.56540 -58.40467 23 ft 0 kts 305°
2026-05-03 23:17 -34.56496 -58.40547 23 ft 41 kts 304°
2026-05-03 23:17 -34.56191 -58.41091 26 ft 110 kts 303°
2026-05-03 23:17 -34.55662 -58.42045 147 ft 152 kts 304°
2026-05-03 23:17 -34.55103 -58.43136 791 ft 154 kts 305°
2026-05-03 23:18 -34.54452 -58.44190 1431 ft 162 kts 319°
2026-05-03 23:18 -34.53488 -58.45035 1848 ft 182 kts 333°
2026-05-03 23:18 -34.52247 -58.45697 2256 ft 209 kts 343°
2026-05-03 23:18 -34.50709 -58.45977 2696 ft 239 kts
2026-05-03 23:19 -34.47885 -58.44222 4007 ft 278 kts 42°
2026-05-03 23:19 -34.46453 -58.42704 4957 ft 267 kts 31°
2026-05-03 23:19 -34.44867 -58.41531 5966 ft 269 kts 25°